Le Teilleul meteorite
(Preview)
Meteorites
1
1200
The Le Teilleul (Howardite) meteorite fell in Basse-Normandie, France, on the 14th July, 1845. A total mass of 780 g was recovered. 48° 32'N, 0° 52'W
July 15th
(
1 2
)
(Preview)
July
10
2123
Meteorites http://astronomy.activeboard.com/t43910705/tieschitz-meteorite/
Asteroid (385186) 1994 AW1
(Preview)
Asteroids 2015
0
461
The 800 - 1800 metre wide asteroid (385186) 1994 AW1 will make a close pass (25.3 LD, 0.0650 AU) travelling at 12.45 km/second, to the Earth-Moon system on the 15th July 2015 @ 14:20 UT ±00:01. See more The Lunar Distance (LD), the distance between Earth and the Moon, equals 384,401 km, (or 0.00256 AU)...
Asteroid 2011 YC29
(Preview)
Asteroids
1
755
Orbital elements:
2011 YC29 Earth MOID = 0.0689 AU
Epoch 2012 Mar. 14.0 TT = JDT 2456000.5 MPC
M 160.69725 (2000.0) P Q
n 0.71463878 Peri. 48.80914 +0.87917960 +0.30952553
a 1.2390200 Node 290.24754 -0.46206098 +0.73949950
e 0.1639647 Incl. 22.71372 +0.11637385 +0.59777456
P 1.38 H 22.2...
Apollo-Soyuz
(Preview)
Mission News
9
4388
Events to mark the 30th anniversary of the Apollo-Soyuz space project open in the National Air and Space Museum, Washington, D.C., Today. "Thirty years ago in July, a new era of international cooperation began when the world's two space powers shook hands in space " - National Ai...
Ramadan
(
1 2 3
)
(Preview)
Events
20
6412
Based on astronomic calculations, Sept. 13 (Thursday) will be the first day of Ramadan while Dec. 19 (Wednesday) will be Arafat Day during Haj this year, according to Sheikh Abdullah ibn Munie, a member of the Council of Senior Islamic Scholars and the Umm Al-Qura Calendar Committee. Sheikh Munie,...
Tenzin Delek Rinpoche (1950 - 2015)
(Preview)
People
0
639
Lithang Tulku Tenzin Delek Rinpoche or Tenzing Deleg (born 1950, in Lithang, Tibet - died 12 July 2015 in Chengdu, China) was a Tibetan Buddhist leader from Garze[disambiguation needed], Sichuan. Read more
Claudia J. Alexander (1959-2015)
(Preview)
People
1
1141
Claudia J. Alexander, Ph.D., (1959 - 11 July 2015) was a research scientist specialising in geophysics and planetary science. Read more
Central New South Wales Submerged volcano
(Preview)
Volcano
1
1081
Volcano cluster thought to be 50 million years old accidentally discovered off coast of Sydney Four extinct volcanoes likely to be 50 million years old have been accidently discovered about 250 kilometres off Sydney's coast. Australian research vessel Investigator found the volcanoes nearly f...
Comet 139P/Vaisala-Oterma
(Preview)
Comets 2015
1
998
Comet 139P/Vaisala-Oterma makes its closest approach to the Earth (2.015 AU) on the 10th July 2015. Ephemeris Date TT R. A. (2000) Decl. Delta r Elong. Phase Mag
2015 07 05 19 35 03.7 -19 25 20 3.8087 4.8128 169.9 2.1 19.2
2015 07 06 19 34 28.5 -19 26 23 3.8044 4.8110 170.9 1.9 19.2
2015 07 07 19 33 53.1 -1...
July 14th
(Preview)
July
7
1774
Meteorites http://astronomy.activeboard.com/t43890690/le-teilleul-meteorite/
Sun 12.07.15
(Preview)
Solar 2015
3
411
White-light image captured with a 100mm f5 Helios refractor and vesta pro webcam. Motorised EQ1 Mount and Baader solar filter.
July 13th
(Preview)
July
6
1061
Meteorites http://astronomy.activeboard.com/t43870339/yonozu-meteorite/
Comet C/2013 Y2 (PANSTARRS)
(Preview)
Comets 2014
6
1201
Ephemeris Date TT R. A. (2000) Decl. Delta r Elong. Phase Mg
2014 01 15 08 22 27.8 -22 05 39 1.8304 2.6265 135.8 15.1 17.5
2014 01 16 08 21 47.6 -22 16 59 1.8204 2.6188 136.0 15.1 17.5
2014 01 17 08 21 06.6 -22 28 03 1.8106 2.6110 136.2 15.1 17.5
2014 01 18 08 20 24.8 -22 38 50 1.8010 2.6033 136.4 15.1 17.4
2014...
Comet C/2012 F3 (PANSTARRS)
(Preview)
Comets
4
1585
Orbital elements:
C/2012 F3 (PANSTARRS)
T 2015 Apr. 4.72233 TT MPC
q 3.4753235 (2000.0) P Q
Peri. 103.71916 -0.02341060 +0.99838636
Node 164.65506 -0.97607453 -0.01163609
e 1.0 Incl. 11.27415 -0.21617228 -0.05558127
From 10 observations 2012 Jan. 19-Mar. 17 MPEC 2012 - F32 Comet C/201...
«First < 1
308 309 310 311 312
2461 > Last» | Page
